User: anonymous   Login
Location: Unspecified
(0.0000°N, 0.0000°E)
Time: 11:52:06
(UTC+00:00)
Language:

KORONAS-FOTON - Orbit

View from above orbital plane
View from above orbital plane
View from above satellite
View from above satellite

Ground track
Ground track

The orbit data is extracted from the following two-line orbital elements,

1 33504U 09003A   16342.32785230  .00000691  00000-0  35508-4 0  9994
2 33504  82.4439  63.6057 0020815  55.8774 304.4428 15.14605861432434
Epoch (UTC): 07 December 2016 07:52:06
Eccentricity: 0.0020815
inclination: 82.4439°
perigee height: 508 km
apogee height: 536 km
right ascension of ascending node: 63.6057°
argument of perigee: 55.8774°
revolutions per day: 15.14605861
mean anomaly at epoch: 304.4428°
orbit number at epoch: 43243

The dashed part of the orbit path shows where the satellite is in the earth's shadow,  

DLR